Regional Weather Roundup
Issued by NWS

Home | Current Version | Previous Version | Text Only | Print | Product List | Glossary Off
Versions: 1 2 3 4 5 6 7 8 9 10 11 12 13 14 15 16 17 18 19 20 21 22 23 24 25 26 27 28 29 30 31 32 33 34 35 36 37 38 39 40 41 42 43 44 45 46 47 48 49 50

000
ASUS43 KFSD 031802
RWRSD

WEATHER ROUNDUP FOR SOUTH DAKOTA
NATIONAL WEATHER SERVICE SIOUX FALLS SD
100 PM CDT WED JUN 03 2015

NOTE: "FAIR" INDICATES FEW OR NO CLOUDS BELOW 12,000 FEET WITH NO
SIGNIFICANT WEATHER AND/OR OBSTRUCTIONS TO VISIBILITY.


SDZ001>005-009-010-012>017-031900-
NORTHWEST AND NORTH CENTRAL SOUTH DAKOTA

CITY           SKY/WX    TMP DP  RH WIND       PRES   REMARKS
BUFFALO          N/A     57  48  72 E9        29.98S
FAITH            N/A     62  49  62 NW12      30.00F
MOBRIDGE       PTSUNNY   65  49  56 NW14      29.94R
$$

SDZ012>016-024>037-041>051-057-063-072>074-031900-
SOUTHWEST AND SOUTH CENTRAL SOUTH DAKOTA

CITY           SKY/WX    TMP DP  RH WIND       PRES   REMARKS
RAPID CTY ARPT CLOUDY    60  52  74 N12       30.03F
PIERRE         PTSUNNY   64  54  69 NW16      29.96R
CUSTER         SUNNY     65  49  56 VRB6      30.07F
ELLSWORTH AFB  CLOUDY    59  53  78 N13       30.03F
PHILIP         PTSUNNY   66  54  65 NW10      29.99S
PINE RIDGE     SUNNY     66  54  65 VRB6      30.02S
WINNER         FAIR      70  57  63 NW16      29.95S
$$

SDZ004>011-016>023-039-040-031900-
NORTHEAST SOUTH DAKOTA

CITY           SKY/WX    TMP DP  RH WIND       PRES   REMARKS
ABERDEEN       CLOUDY    64  55  72 N14       29.90R
WATERTOWN      CLOUDY    68  62  81 N8        29.86R
BROOKINGS      FAIR      72  63  73 W12G18    29.88R
SISSETON         N/A     64  60  87 N14       29.85R
$$

SDZ017-020-022-023-036>040-048>070-031900-
SOUTHEAST SOUTH DAKOTA

CITY           SKY/WX    TMP DP  RH WIND       PRES   REMARKS
SIOUX FALLS    FAIR      73  65  75 VRB7      29.87S
HURON          MOSUNNY   74  61  63 NW17      29.89R
CHAMBERLAIN    PTSUNNY   68  59  72 NW15      29.94R
MITCHELL       MOSUNNY   76  62  62 N8G18     29.89R
YANKTON        FAIR      75  63  64 NW6       29.88R
$$

ABBREVIATIONS USED IN REMARKS
   TC - TEMPERATURE IN CELSIUS
  WCI - WIND CHILL INDEX
   HX - HEAT INDEX
  VSB - VISIBILITY




USA.gov is the U.S. government's official web portal to all federal, state and local government web resources and services.